星链-30315 (STARLINK-30315 )

导读

STARLINK-30315是美国星链计划的卫星,于2023年8月27日发射。它属于SpaceX打造的低轨卫星互联网星座,承担为全球提供高速卫星互联网接入服务的任务,补充完善星链星座的覆盖范围与服务能力,助力星链在通信、导航等多领域场景应用,是星链组网部署进程中的组成单元。

Basic Information
目录编号:
57708
目录名称:
STARLINK-30315
国际标识:
2023-129L
轨道中心:
EARTH
卫星名称:
星链-30315
卫星全名:
星链-30315 (STARLINK-30315 )
卫星状态:
在轨 (已飞行1026 天)
发射日期:
2023-08-27 UTC
国别 :
美国 (US)
星等 :
--
Orbit Information
数据来源 国际轨道数据 AOE轨道数据
星历时间 2026-06-18T15:43:44+0800
6小时前
查看轨道信息
2026-06-13T16:00:00+0800
5天前
查看轨道信息
半长轴 6861.217km 6861.137km
偏心率 0.0000575 0.0002251
轨道倾角 43.004° 43.006°
近地点辐角 289.921° 262.214°
升交点赤经 269.532° 297.714°
平近点角 70.158° 351.543°
近地点 482.685km 481.455km
远地点 483.475km 484.545km
周期 94.267分钟 94.266分钟
每日圈数 15.275697 15.275967
Detailed Information
固有亮度:
5
最大亮度:
0.3
卫星平台:
Starlink v2.0 mini
覆盖范围:
全球
运营商:
太空探索技术公司
运营商所在国:
美国
制造商(研发单位):
太空探索技术公司
制造商所在国:
美国
使用方式:
暂无
Satellite Introduction
星链(Starlink)计划是由太空探索技术公司(SpaceX)提出的一个巨型低轨卫星互联网星座项目,计划在2019年至2024年间在太空搭建由约1.2万颗卫星组成的“星链”网络,其中1584颗将部署在地球上空550千米处的近地轨道,并从2020年开始工作。该卫星仍在工作。
2D Orbit Map
3D Orbit Map
Orbit Altitude Analysis Chart
Orbit Inclination Analysis Chart
Orbit Comprehensive Analysis Chart
View Comprehensive Chart